DELTA 1 DEB, 10717

Orbit data source: Space-Track

DELTA 1 DEB, 10717 is space debris in SSO originally from a launch on Thu, 29 Jul 1976 UTC launched from the Air Force Western Test Range (AFWTR). Debris objects in space refer to the collection of defunct objects orbiting the Earth. Examples of debris include non-operational satellites, rocket bodies, and fragments generated from explosions, collisions, or faulty payload assembly.

Loading next visibility...
Identifier
10717, 1976-077AN
Orbit
SSO
Country
Flag of USUS
Related business
Manufacturer
Unknown
Mission
Spacecraft
Bus & Motor
Unknown
Mass
Unknown
Launch date (UTC)
1976-07-29 (50 years ago)
Launch vehicle
Unknown
Launch site
Air Force Western Test Range (AFWTR)
Object type
Payload
Rocket body
Debris
Shape & HBR
Unknown shape, 0.1 m
Radar Cross Section
Medium (>0.1 m² and <1 m²)

Expand to show TLE details & history
Last TLE update: 18 hours ago

TLE from 18 hours ago
0 DELTA 1 DEB
1 10717U 76077AN  26255.25673308 -.00000041  00000-0  46391-4 0  9990
2 10717 102.6589 241.2044 0099767 148.6133 225.5006 12.23336590238388
Epoch: 2026-09-12T06:09Z
TLE epoch observation values (Epoch: 2026-09-12T06:09:41.738Z)
Latitude
12.94556°
Longitude
154.56692°
Altitude
1,635.846 km
Speed
7.03 km/s
True Right ascension
15h 53m 02s
True Declination
12° 52' 44"
Sunlit
Object was in daylight at epoch
Visualization orbit readout
Latitude
Unknown
Longitude
Unknown
Altitude
Unknown
Speed
Unknown
Apparent Right ascension
Unknown
Apparent Declination
Unknown
Sunlit
N/A
Visualization observer readout
Local Sidereal Time
16:33:24
Azimuth
Unknown
Elevation
Unknown
Doppler factor
Unknown
Orbital elements
Apogee altitude
1,655.031 km
Perigee altitude
1,496.325 km
Semi-major axis
7,953.815 km
Eccentricity
0.00998
Inclination
102.6589°
RAAN
241.2044°
Arg. of periapsis
148.6133°
True anomaly
224.69227°
Mean anomaly
225.5006°
Eccentric anomaly
225.09573°
Mean motion
3.05971 °/min
Orbital period
117.66 mins
BSTAR
0.000046391
Loading maneuver chart data...
Computing Atmospheric mass density...
Loading historical data...
Loading historical data...
Loading historical data...
Loading historical data...
Loading historical data...
Loading historical data...
Loading historical data...

Documentation

Showing up to 5 results
|